Precipitable_Water
0.93 0.94 0.93 0.95 0.97 1.01 1.03 1.04 1.08 1.09 1.11 1.14 1.13 1.14 1.14 1.14 1.16 1.17 1.21 1.23 1.23 1.22 1.21 1.22 1.27 1.28 1.31 1.37 1.49 1.46 1.34 1.37 1.41 1.46 1.41 1.40 1.38 1.41 1.38 1.34 1.37 1.41
0.90 0.92 0.92 0.94 0.96 0.97 0.99 1.01 1.02 1.04 1.07 1.11 1.16 1.18 1.19 1.18 1.17 1.17 1.18 1.19 1.17 1.17 1.18 1.18 1.19 1.22 1.26 1.31 1.39 1.40 1.37 1.33 1.32 1.42 1.40 1.38 1.39 1.42 1.40 1.38 1.38 1.44
0.88 0.88 0.88 0.87 0.88 0.91 0.93 0.96 0.98 1.01 1.04 1.09 1.14 1.17 1.17 1.20 1.19 1.20 1.20 1.18 1.15 1.16 1.16 1.15 1.15 1.20 1.27 1.32 1.39 1.39 1.36 1.35 1.32 1.39 1.42 1.39 1.43 1.40 1.38 1.41 1.42 1.44
0.87 0.87 0.86 0.86 0.86 0.85 0.88 0.90 0.93 0.96 0.99 0.99 1.01 1.07 1.11 1.15 1.18 1.18 1.20 1.20 1.18 1.18 1.22 1.21 1.18 1.20 1.26 1.29 1.34 1.36 1.34 1.36 1.37 1.44 1.41 1.41 1.41 1.40 1.39 1.43 1.44 1.48
0.83 0.82 0.82 0.82 0.83 0.82 0.81 0.81 0.84 0.87 0.89 0.93 0.96 0.99 1.02 1.05 1.08 1.12 1.16 1.17 1.18 1.18 1.21 1.23 1.24 1.22 1.24 1.28 1.32 1.31 1.34 1.33 1.32 1.38 1.43 1.39 1.40 1.40 1.41 1.42 1.42 1.42
0.80 0.80 0.80 0.79 0.78 0.77 0.77 0.76 0.77 0.78 0.81 0.83 0.87 0.92 0.96 1.00 1.03 1.05 1.08 1.11 1.15 1.18 1.21 1.23 1.24 1.25 1.28 1.27 1.28 1.34 1.38 1.33 1.32 1.37 1.37 1.38 1.40 1.42 1.43 1.45 1.43 1.39
0.75 0.76 0.75 0.75 0.75 0.75 0.73 0.73 0.74 0.75 0.77 0.78 0.81 0.83 0.88 0.91 0.94 0.99 1.04 1.08 1.12 1.15 1.19 1.21 1.23 1.25 1.30 1.33 1.30 1.32 1.35 1.36 1.36 1.38 1.38 1.38 1.38 1.37 1.40 1.41 1.40 1.40
0.74 0.75 0.75 0.74 0.72 0.72 0.72 0.72 0.73 0.73 0.74 0.74 0.73 0.76 0.80 0.83 0.89 0.94 0.98 1.02 1.06 1.12 1.15 1.19 1.21 1.21 1.25 1.28 1.32 1.34 1.38 1.37 1.37 1.35 1.34 1.35 1.38 1.36 1.40 1.38 1.40 1.43
0.74 0.74 0.74 0.73 0.72 0.73 0.71 0.72 0.72 0.73 0.74 0.72 0.72 0.73 0.76 0.77 0.80 0.85 0.91 0.97 1.01 1.07 1.13 1.15 1.19 1.23 1.24 1.23 1.26 1.29 1.32 1.31 1.32 1.35 1.33 1.33 1.34 1.35 1.41 1.44 1.41 1.39
0.72 0.73 0.73 0.73 0.71 0.72 0.71 0.71 0.72 0.73 0.74 0.73 0.73 0.74 0.73 0.76 0.77 0.78 0.82 0.87 0.93 1.01 1.09 1.12 1.16 1.19 1.23 1.23 1.20 1.23 1.29 1.33 1.38 1.39 1.39 1.35 1.36 1.37 1.39 1.45 1.46 1.45
0.71 0.72 0.72 0.72 0.71 0.72 0.71 0.71 0.71 0.72 0.73 0.73 0.72 0.72 0.73 0.74 0.74 0.77 0.78 0.81 0.87 0.95 1.04 1.10 1.15 1.18 1.21 1.24 1.25 1.28 1.33 1.36 1.36 1.38 1.40 1.40 1.36 1.39 1.40 1.44 1.48 1.44
0.70 0.71 0.71 0.71 0.71 0.71 0.71 0.71 0.71 0.71 0.71 0.72 0.73 0.70 0.72 0.73 0.72 0.73 0.76 0.79 0.84 0.89 0.97 1.06 1.10 1.10 1.09 1.11 1.17 1.26 1.32 1.31 1.32 1.34 1.38 1.39 1.37 1.35 1.39 1.42 1.46 1.46
0.69 0.70 0.71 0.71 0.71 0.72 0.73 0.72 0.71 0.71 0.71 0.70 0.72 0.70 0.70 0.69 0.70 0.71 0.74 0.77 0.81 0.87 0.93 0.94 0.96 0.99 1.01 1.05 1.09 1.12 1.19 1.25 1.31 1.32 1.31 1.36 1.39 1.37 1.38 1.39 1.42 1.47
0.69 0.70 0.71 0.71 0.72 0.73 0.73 0.73 0.72 0.71 0.71 0.71 0.71 0.69 0.69 0.68 0.67 0.68 0.72 0.75 0.77 0.83 0.88 0.88 0.91 0.94 0.96 0.99 1.03 1.05 1.07 1.16 1.26 1.27 1.24 1.31 1.36 1.41 1.42 1.39 1.38 1.44
0.70 0.72 0.72 0.71 0.72 0.72 0.71 0.71 0.71 0.71 0.70 0.70 0.70 0.69 0.69 0.69 0.69 0.68 0.69 0.71 0.74 0.78 0.81 0.87 0.87 0.87 0.90 0.90 0.93 1.00 1.05 1.09 1.15 1.22 1.25 1.25 1.31 1.35 1.38 1.41 1.37 1.41
0.69 0.69 0.69 0.69 0.69 0.69 0.70 0.71 0.71 0.71 0.70 0.69 0.69 0.69 0.69 0.69 0.68 0.68 0.68 0.68 0.69 0.72 0.76 0.81 0.81 0.82 0.86 0.90 0.94 0.95 1.01 1.06 1.11 1.17 1.21 1.24 1.27 1.32 1.36 1.37 1.36 1.38
0.65 0.66 0.67 0.66 0.67 0.68 0.69 0.69 0.69 0.70 0.70 0.70 0.70 0.69 0.68 0.68 0.68 0.67 0.67 0.68 0.68 0.68 0.70 0.75 0.77 0.79 0.82 0.86 0.90 0.95 0.98 1.02 1.07 1.14 1.20 1.23 1.25 1.29 1.31 1.33 1.34 1.37
0.64 0.64 0.64 0.65 0.65 0.66 0.67 0.68 0.68 0.68 0.68 0.69 0.70 0.70 0.70 0.70 0.68 0.67 0.67 0.68 0.68 0.68 0.69 0.71 0.73 0.75 0.80 0.84 0.88 0.92 0.95 0.99 1.05 1.10 1.15 1.19 1.22 1.26 1.30 1.30 1.28 1.31
0.63 0.63 0.63 0.63 0.63 0.64 0.64 0.65 0.65 0.66 0.66 0.67 0.67 0.69 0.71 0.70 0.69 0.68 0.68 0.68 0.68 0.67 0.67 0.69 0.71 0.73 0.75 0.79 0.84 0.88 0.92 0.96 1.01 1.08 1.13 1.17 1.19 1.25 1.30 1.30 1.29 1.27
0.61 0.61 0.61 0.62 0.61 0.60 0.61 0.61 0.61 0.61 0.63 0.65 0.66 0.67 0.67 0.67 0.68 0.69 0.69 0.68 0.68 0.67 0.67 0.68 0.69 0.70 0.72 0.74 0.79 0.85 0.91 0.96 0.99 1.05 1.13 1.17 1.20 1.22 1.28 1.33 1.33 1.28
0.57 0.58 0.58 0.59 0.58 0.58 0.57 0.57 0.57 0.58 0.59 0.60 0.62 0.62 0.62 0.63 0.64 0.65 0.67 0.69 0.69 0.68 0.67 0.67 0.67 0.68 0.69 0.70 0.73 0.77 0.85 0.94 1.03 1.07 1.11 1.17 1.21 1.23 1.24 1.29 1.34 1.33
0.54 0.54 0.54 0.55 0.55 0.55 0.54 0.53 0.55 0.54 0.54 0.57 0.58 0.58 0.60 0.62 0.63 0.64 0.64 0.65 0.66 0.68 0.67 0.66 0.68 0.68 0.68 0.68 0.69 0.72 0.77 0.84 0.95 1.01 1.07 1.12 1.15 1.19 1.22 1.27 1.34 1.36
0.51 0.52 0.51 0.51 0.52 0.52 0.51 0.51 0.51 0.52 0.53 0.54 0.54 0.55 0.56 0.57 0.59 0.60 0.62 0.62 0.63 0.65 0.65 0.66 0.67 0.68 0.68 0.67 0.67 0.69 0.72 0.78 0.86 0.93 0.99 1.05 1.09 1.14 1.20 1.26 1.31 1.36
0.47 0.48 0.46 0.47 0.50 0.50 0.49 0.46 0.47 0.50 0.50 0.53 0.51 0.52 0.52 0.55 0.57 0.58 0.59 0.60 0.60 0.61 0.63 0.63 0.65 0.67 0.68 0.68 0.67 0.67 0.69 0.71 0.77 0.84 0.92 0.99 1.05 1.11 1.16 1.24 1.28 1.32
0.41 0.41 0.40 0.39 0.41 0.43 0.42 0.38 0.39 0.44 0.47 0.48 0.50 0.51 0.51 0.53 0.53 0.54 0.55 0.57 0.59 0.60 0.61 0.61 0.63 0.65 0.67 0.68 0.68 0.67 0.68 0.69 0.72 0.76 0.83 0.93 1.01 1.05 1.12 1.12 1.14 1.18
0.39 0.37 0.37 0.36 0.35 0.36 0.36 0.34 0.32 0.33 0.38 0.42 0.44 0.46 0.47 0.50 0.50 0.51 0.51 0.52 0.56 0.57 0.59 0.60 0.61 0.62 0.65 0.67 0.68 0.68 0.68 0.68 0.69 0.70 0.74 0.83 0.93 1.00 1.03 1.06 1.08 1.12
Wind_Speed
18 19 19 19 20 20 21 21 22 22 23 23 24 25 25 25 26 26 27 28 29 29 29 29 29 29 28 27 27 26 26 27 27 27 27 28 28 28 28 27 28 28
18 18 18 19 19 20 20 21 22 22 23 24 25 25 25 26 26 27 28 28 29 29 28 28 28 28 28 27 27 26 25 27 27 27 27 28 28 28 28 28 28 29
18 18 19 19 19 20 20 21 22 22 23 24 24 25 25 26 27 28 28 28 28 28 28 28 27 27 27 26 27 26 26 26 27 27 27 27 27 28 28 28 28 29
18 18 19 19 19 20 21 21 22 22 23 23 24 25 25 26 27 28 28 28 28 28 27 27 27 26 26 25 26 26 26 26 26 27 26 26 27 27 27 28 28 29
19 19 19 19 20 21 21 22 22 23 23 24 25 25 26 26 27 27 27 27 27 27 27 27 26 26 25 25 25 25 26 25 26 26 26 26 27 27 27 28 28 29
18 18 19 19 20 21 21 22 22 23 24 24 25 26 26 26 27 26 26 27 27 27 27 27 26 26 25 24 24 25 25 25 25 26 26 27 27 27 28 28 29 29
18 18 19 20 20 21 21 22 22 23 23 24 25 25 26 27 27 27 27 27 27 28 27 27 27 26 26 25 25 26 26 26 25 26 26 26 27 27 28 28 28 29
18 19 19 20 21 21 22 22 23 23 24 24 25 25 25 26 27 27 27 27 27 28 28 27 27 27 26 25 26 26 26 26 26 26 26 26 26 27 27 27 28 28
18 19 20 20 21 21 22 23 23 24 24 24 25 25 25 26 26 26 27 27 27 28 28 28 27 27 26 25 25 25 26 26 26 26 27 26 27 27 26 27 27 28
19 19 20 21 21 22 22 23 23 23 24 24 25 25 26 26 27 27 27 27 27 27 28 28 27 27 26 25 25 25 25 25 26 26 26 26 26 26 26 26 27 27
19 20 20 21 21 22 22 23 23 23 24 24 24 25 26 26 27 27 26 26 27 27 27 27 27 26 26 25 24 24 24 25 25 25 25 25 25 25 25 25 26 27
19 20 21 21 22 22 23 23 23 24 24 24 24 25 25 26 26 26 26 26 26 26 26 26 26 25 25 25 24 24 24 24 24 24 23 24 24 24 24 25 25 26
20 21 21 22 22 22 22 23 23 23 23 23 24 24 25 25 26 26 26 26 26 26 25 25 26 26 26 25 24 24 24 23 24 23 22 23 23 24 24 24 25 26
20 21 21 22 22 22 22 22 23 23 23 23 23 23 24 24 25 26 26 25 26 26 25 25 25 26 26 26 25 25 24 24 23 23 23 23 23 24 24 24 25 25
21 21 21 22 22 22 22 22 23 23 23 23 23 24 24 24 25 25 26 26 26 26 26 26 25 26 27 27 26 25 25 24 24 24 24 24 23 24 24 24 24 25
21 21 21 22 22 22 23 23 23 24 24 24 24 25 25 25 25 26 26 26 26 26 26 26 26 27 27 27 26 26 25 25 24 24 24 24 23 23 24 24 24 25
21 21 22 22 22 23 23 24 24 24 24 25 25 25 26 26 27 27 27 27 27 26 26 26 26 28 28 28 27 27 26 25 25 25 24 24 23 23 24 24 25 25
21 22 22 22 23 23 24 24 24 24 25 25 25 26 27 27 27 27 28 28 27 27 27 26 26 28 29 28 28 27 27 26 25 25 24 24 23 23 24 25 25 25
21 22 22 23 23 24 24 24 24 25 25 25 26 26 27 27 27 27 28 28 28 28 28 26 27 28 29 28 28 28 27 26 26 25 24 24 23 23 23 23 24 24
21 22 22 23 23 24 24 24 24 25 25 25 26 26 26 27 27 27 27 27 28 28 28 27 27 28 28 28 28 28 27 26 25 25 24 24 24 23 22 22 23 24
21 22 22 23 23 24 24 24 24 25 25 25 25 26 26 26 26 27 27 27 27 28 28 27 27 28 28 28 28 27 27 25 24 24 24 24 24 23 23 22 23 24
21 22 22 23 23 23 24 24 24 25 25 25 25 25 25 26 26 26 26 26 26 26 27 27 27 28 28 27 27 27 26 24 23 24 24 24 24 23 23 23 23 23
22 22 23 23 23 23 24 24 24 25 25 25 25 25 25 25 25 25 25 25 25 25 26 26 26 27 28 27 27 26 25 23 23 23 24 24 23 23 23 23 23 23
22 22 23 24 24 24 24 25 25 25 25 25 25 25 25 25 25 25 25 25 25 25 25 25 25 26 27 26 26 26 25 23 23 23 23 23 23 22 22 22 22 22
21 22 23 23 24 24 24 25 25 25 26 26 25 25 25 25 25 25 25 25 25 25 25 25 25 25 25 26 25 25 24 23 22 22 22 22 22 22 21 21 21 21
21 22 23 23 23 24 24 24 25 25 25 25 25 25 25 25 25 25 25 25 25 25 25 25 25 25 25 25 25 25 24 23 22 21 22 21 21 21 21 21 20 21
Wind_Direction
296 296 296 295 295 296 296 297 298 298 299 300 300 301 300 300 300 300 299 299 299 299 298 296 293 290 285 279 277 274 268 264 263 262 261 260 258 255 253 251 248 246
300 300 299 298 297 297 298 298 298 298 299 300 301 301 301 301 301 300 300 300 300 300 300 299 295 291 286 279 276 276 271 265 264 263 261 260 257 255 253 251 248 247
301 301 301 300 299 299 299 299 299 299 299 300 301 302 302 302 302 302 302 301 301 301 301 300 298 293 289 281 276 275 273 267 264 263 262 259 257 255 253 251 249 246
301 300 301 301 301 300 299 299 299 299 299 300 301 302 303 303 304 303 303 301 301 302 301 301 299 295 291 284 277 275 273 269 265 264 263 261 258 256 253 251 249 246
300 300 301 301 301 302 301 301 300 300 300 300 300 301 302 303 305 305 304 302 302 302 302 301 299 297 293 286 280 277 274 270 266 264 264 263 260 257 254 251 249 246
299 300 300 301 302 303 303 302 302 302 302 303 303 303 303 303 304 305 305 304 303 303 302 301 299 297 294 287 281 277 274 271 268 265 265 263 260 257 254 251 249 246
299 299 300 302 304 304 304 304 304 304 304 305 305 305 306 305 305 304 304 304 304 304 303 302 300 298 295 290 284 278 274 271 268 266 266 264 261 257 254 251 249 247
299 300 301 303 305 305 305 306 306 306 305 306 306 306 307 308 308 307 305 303 303 304 304 303 301 299 296 293 289 282 276 273 269 266 266 265 261 258 253 250 248 246
300 301 303 305 306 306 307 307 307 306 307 307 307 307 308 308 309 309 308 307 304 303 303 304 303 301 297 294 292 286 279 275 271 268 268 266 263 260 255 250 247 244
301 302 304 306 307 307 308 308 308 308 308 308 309 309 309 309 309 309 309 309 307 304 304 304 303 302 299 296 292 289 284 279 275 272 269 266 263 260 256 251 246 243
302 303 304 306 306 306 308 308 309 308 308 308 309 310 310 310 311 310 309 309 309 307 306 306 304 303 302 298 294 291 288 283 280 277 271 266 263 260 256 251 246 244
301 302 304 305 305 306 307 307 308 308 307 307 308 310 311 311 311 312 311 309 309 308 307 307 307 306 305 301 297 294 292 287 282 279 274 268 263 260 256 252 247 246
301 302 303 304 304 305 305 306 306 307 307 307 308 310 310 311 312 312 311 309 309 309 308 308 307 306 305 302 298 296 294 290 283 279 277 273 266 260 257 253 249 248
300 301 302 303 304 304 305 306 306 306 307 306 307 309 310 311 312 312 311 310 309 309 308 307 307 306 305 303 299 296 295 291 285 279 278 277 271 261 257 254 250 249
300 300 301 302 304 304 305 306 306 306 306 306 306 308 309 311 312 312 311 311 311 310 308 307 307 307 306 304 300 296 295 292 288 282 279 280 275 265 258 256 252 249
302 302 302 303 304 305 305 306 306 305 305 305 306 306 307 309 311 312 312 311 311 311 309 307 308 309 308 304 301 297 294 292 290 285 280 280 278 269 261 257 254 252
302 302 303 304 304 305 306 306 306 305 304 304 305 305 306 306 308 310 311 311 311 312 311 308 308 311 310 306 302 298 294 292 290 286 281 278 279 274 265 260 257 254
302 303 303 304 304 305 305 305 306 305 305 304 304 305 305 305 306 308 309 310 310 312 312 309 308 312 312 308 303 300 295 291 288 286 282 278 278 278 271 262 258 256
303 303 304 304 305 305 305 305 305 305 305 305 304 304 304 304 305 306 307 308 310 311 312 310 309 312 313 310 306 302 298 293 287 284 283 279 278 279 274 264 258 256
304 304 304 305 305 305 305 304 305 305 304 304 304 303 304 304 304 305 306 307 308 310 311 310 311 313 314 312 309 304 300 295 290 285 283 280 278 278 275 267 261 260
306 305 305 306 306 305 305 305 305 305 304 303 303 303 304 304 303 304 305 305 306 309 310 310 311 314 315 314 312 308 302 295 291 287 284 280 278 277 275 270 265 263
307 307 306 307 307 307 307 306 305 305 305 304 303 303 304 303 303 303 304 305 306 308 309 309 310 313 316 315 315 313 306 298 293 290 285 281 279 277 275 272 267 264
309 308 308 308 308 308 309 308 307 306 306 305 303 303 304 304 303 303 303 304 305 307 308 308 309 312 315 316 316 316 312 302 296 292 288 284 280 278 275 272 267 263
311 311 311 310 310 310 310 310 308 306 306 305 304 303 303 303 303 303 303 303 304 305 307 308 308 311 314 316 316 317 316 308 299 294 291 287 282 279 277 273 268 265
313 313 312 312 312 311 311 311 310 307 305 305 304 303 302 302 303 303 303 304 304 304 305 306 307 309 313 315 315 316 317 313 305 298 294 291 286 282 279 274 270 268
314 314 314 313 312 311 310 311 311 310 307 305 304 303 302 302 302 302 303 304 304 304 305 305 305 307 310 313 314 315 315 314 311 305 299 294 290 285 281 276 271 269